Rechercher aéroport 
image banner adimage banner ad
image banner ad

DAUU - Ouargla/Ain Beida

Situé à Ouargla, Algeria

ICAO - DAUU, IATA - OGX

Données fournies par Airmate  

Information générale

Coordonnées: N31°55'53" E5°24'49"
Élévation : 498 feet MSL.
 
Voir autres Aéroports à Ouargla Province

Données opérationnelles

Accessible au public
Heure actuelle UTC:
Heure actuelle locale:
Météo
METAR: DAUU 010100Z 00000KT CAVOK 16/05 Q1023
TAF: TAF DAUU 312300Z 0100/0109 VRB02KT CAVOK
Voir NOTAMs / SUP AIP / TFR affectant cet aéroport [VIEW]
Fréquences de communication: [VIEW]

Pistes:

Identifiant RWYQFULongueur (ft)Largeur (ft)SurfaceLDA (ft)
0215°9843148ASP
20195°9843148
18179°9843148
36359°9843148

Coordonnées de l'aéroport

Adresse: Ouargla Algeria

Vue satellite de DAUU